TimeCST,TemperatureF,Dew PointF,Humidity,Sea Level PressureIn,VisibilityMPH,Wind Direction,Wind SpeedMPH,Gust SpeedMPH,PrecipitationIn,Events,Conditions,WindDirDegrees,DateUTC
12:23 AM,33.8,32.0,93,30.12,10.0,West,5.8,-,N/A,,Scattered Clouds,270,2013-02-13 06:23:00
12:55 AM,32.7,32.4,99,30.12,10.0,West,8.1,-,N/A,,Clear,260,2013-02-13 06:55:00
1:55 AM,30.9,30.6,99,30.10,10.0,NW,5.8,-,N/A,,Clear,320,2013-02-13 07:55:00
2:55 AM,30.2,30.0,99,30.12,10.0,West,5.8,-,N/A,,Clear,280,2013-02-13 08:55:00
3:55 AM,29.5,29.3,99,30.10,10.0,WNW,4.6,-,N/A,,Clear,300,2013-02-13 09:55:00
4:55 AM,29.3,28.6,97,30.10,10.0,West,5.8,-,N/A,,Clear,280,2013-02-13 10:55:00
5:55 AM,29.3,27.9,94,30.09,10.0,West,3.5,-,N/A,,Clear,270,2013-02-13 11:55:00
6:55 AM,27.7,27.5,99,30.09,10.0,WSW,3.5,-,N/A,,Clear,240,2013-02-13 12:55:00
7:55 AM,28.2,28.0,99,30.11,10.0,NW,3.5,-,N/A,,Clear,310,2013-02-13 13:55:00
8:55 AM,30.6,28.8,93,30.13,10.0,West,3.5,-,N/A,,Clear,270,2013-02-13 14:55:00
9:55 AM,34.7,29.7,82,30.13,10.0,WSW,5.8,-,N/A,,Clear,240,2013-02-13 15:55:00
10:55 AM,38.3,31.5,76,30.13,10.0,West,8.1,-,N/A,,Clear,270,2013-02-13 16:55:00
11:55 AM,41.7,30.9,66,30.12,10.0,Calm,Calm,-,N/A,,Clear,0,2013-02-13 17:55:00
12:55 PM,45.3,30.2,56,30.09,10.0,Calm,Calm,-,N/A,,Clear,0,2013-02-13 18:55:00
1:55 PM,49.3,28.9,45,30.05,10.0,Variable,3.5,-,N/A,,Clear,0,2013-02-13 19:55:00
2:55 PM,52.3,29.3,41,30.03,10.0,SW,3.5,-,N/A,,Clear,220,2013-02-13 20:55:00
3:55 PM,54.5,30.4,40,30.00,10.0,Variable,6.9,-,N/A,,Clear,0,2013-02-13 21:55:00
4:55 PM,54.7,31.3,41,29.99,10.0,SSW,6.9,-,N/A,,Clear,200,2013-02-13 22:55:00
5:55 PM,53.4,32.5,45,29.99,10.0,SE,3.5,-,N/A,,Clear,140,2013-02-13 23:55:00
6:55 PM,46.2,35.1,65,30.01,10.0,ENE,4.6,-,N/A,,Clear,60,2013-02-14 00:55:00
7:55 PM,39.6,34.3,82,30.01,10.0,ESE,4.6,-,N/A,,Clear,110,2013-02-14 01:55:00
8:55 PM,38.1,32.7,81,30.02,10.0,ENE,4.6,-,N/A,,Clear,70,2013-02-14 02:55:00
9:55 PM,37.8,31.8,79,30.02,10.0,NNE,6.9,-,N/A,,Clear,20,2013-02-14 03:55:00
10:55 PM,34.9,31.6,88,30.03,10.0,NNE,5.8,-,N/A,,Clear,20,2013-02-14 04:55:00
11:55 PM,34.3,32.4,92,30.04,10.0,NNE,5.8,-,N/A,,Clear,20,2013-02-14 05:55:00